EHI
5 15 25 28 24 21 20 20 23 26 27 26 26 23 19 17 17 15 12 10 10 8 4 1 0 1 2 3 2 2 2 3 3 3 1 1 1 0 0 0 0 0 0
7 17 26 28 26 23 20 19 21 25 26 26 25 22 19 18 18 15 12 11 10 6 2 0 0 1 2 3 2 2 2 3 3 3 2 2 1 1 0 0 0 0 0
11 19 26 29 28 25 21 19 21 24 25 26 25 22 20 19 18 16 14 12 9 5 1 0 0 1 2 3 2 2 2 3 3 3 3 3 2 1 0 0 0 0 0
13 19 25 28 28 25 21 19 19 21 24 25 24 22 20 19 18 16 14 12 9 5 2 1 0 1 2 3 2 1 2 3 3 3 3 2 1 0 0 0 0 0 0
14 18 22 24 25 23 20 17 17 19 21 22 22 22 21 20 18 16 13 10 7 6 4 2 1 1 1 2 3 2 2 3 3 3 2 1 0 0 0 0 0 0 0
13 16 18 21 23 22 18 16 15 16 18 20 21 22 22 21 19 16 12 9 7 6 6 4 2 0 1 2 3 2 2 3 3 3 1 0 0 0 0 0 0 0 0
12 13 15 19 23 22 18 14 13 13 15 17 19 20 21 21 18 15 11 8 6 6 6 4 2 0 0 1 3 3 2 3 3 2 1 0 0 0 0 0 0 0 0
13 12 13 17 21 21 16 11 10 11 13 16 18 18 17 18 17 13 10 8 6 6 6 4 2 1 0 1 2 3 3 3 2 1 0 0 0 0 0 0 0 0 0
13 12 12 15 16 15 11 8 8 10 13 16 17 16 14 14 14 11 8 7 6 6 5 4 3 1 1 1 2 3 3 2 1 0 0 0 0 0 0 0 0 0 0
11 11 12 13 12 9 7 6 6 8 12 14 15 13 12 11 10 9 7 6 6 5 4 3 3 2 1 1 1 2 2 1 0 0 0 0 1 1 0 0 0 0 0
8 9 11 11 8 7 6 5 6 7 10 12 12 11 9 8 6 5 4 4 5 4 3 3 3 3 1 0 0 2 2 1 0 0 0 1 2 2 1 0 0 0 0
6 8 9 9 7 6 6 6 5 6 8 9 9 8 6 4 2 2 3 3 4 3 3 3 3 2 1 0 0 1 2 1 0 0 0 1 2 2 1 0 0 0 0
6 7 8 8 7 6 6 6 5 5 6 8 7 5 3 1 0 1 2 3 3 3 3 3 2 1 0 0 0 1 1 0 0 0 0 1 2 2 1 0 0 0 0
5 6 7 7 6 6 6 6 4 4 6 6 5 3 2 1 0 1 2 3 3 3 3 3 1 0 0 0 0 0 0 0 0 0 0 1 2 2 1 0 0 0 0
3 4 5 5 5 5 6 5 4 4 5 5 4 3 2 1 0 1 2 3 3 3 3 2 1 0 0 0 0 0 0 0 0 0 0 0 1 1 0 0 0 0 0
2 3 4 4 3 4 5 4 3 3 4 4 3 3 1 0 0 0 1 3 3 3 2 1 0 0 0 0 0 0 0 0 0 0 0 0 0 0 0 0 0 0 0
2 3 3 2 1 1 2 3 3 3 3 3 3 2 1 0 0 0 1 2 3 3 1 0 0 0 0 0 0 0 0 0 0 0 0 0 0 0 0 0 0 0 0
2 3 2 1 0 0 1 1 2 2 2 2 1 1 0 0 0 0 0 1 2 2 1 0 0 0 0 0 0 0 0 0 0 0 0 0 0 0 0 0 0 0 0
3 3 2 1 0 0 0 0 1 1 1 1 0 0 0 0 0 0 0 1 1 1 0 0 0 0 0 0 0 0 0 0 0 0 0 0 0 0 0 0 0 0 0
3 3 2 1 0 0 0 0 0 0 0 0 0 0 0 0 0 0 0 0 0 0 0 0 0 0 0 0 0 0 0 0 0 0 0 0 0 0 0 0 0 0 0
2 3 3 2 1 0 0 0 0 0 0 0 0 0 0 0 0 0 0 0 0 0 0 0 0 0 0 0 0 0 0 0 0 0 0 0 0 0 0 0 0 0 0
1 2 3 2 1 0 0 0 0 0 0 0 0 0 0 0 0 0 0 0 0 0 0 0 0 0 0 0 0 0 0 0 0 0 0 0 0 0 0 0 0 0 0
1 2 3 2 1 0 0 0 0 0 0 0 0 0 0 0 0 0 0 0 0 0 0 0 0 0 0 0 0 0 0 0 0 0 0 0 0 0 0 0 0 0 0
0 1 2 2 1 0 0 0 0 0 0 0 0 0 0 0 0 0 0 0 0 0 0 0 0 0 0 0 0 0 0 0 0 0 0 0 0 0 0 0 0 0 0
0 0 1 2 2 1 0 0 0 0 0 0 0 0 0 0 0 0 0 0 0 0 0 0 0 0 0 0 0 0 0 0 0 0 0 0 0 0 0 0 0 0 0
0 0 1 2 2 1 0 0 0 0 0 0 0 0 0 0 0 0 0 0 0 0 0 0 0 0 0 0 0 0 0 0 0 0 0 0 0 0 0 0 0 0 0
Wind_Speed
1 1 4 5 7 7 8 9 9 10 10 11 11 11 11 10 10 10 10 10 9 9 10 10 10 10 10 10 10 10 10 10 10 10 10 9 9 10 10 10 9 5 10
2 3 4 5 7 8 8 9 9 9 10 10 10 11 10 10 10 10 10 9 9 9 10 10 9 10 10 10 10 9 10 10 10 9 9 8 8 9 9 9 9 6 10
2 3 5 6 7 8 8 8 9 9 9 9 10 10 10 10 10 9 9 9 9 9 9 10 9 9 9 9 9 8 8 9 9 9 8 4 4 8 9 9 9 9 9
2 2 3 6 7 7 8 8 8 8 8 9 9 10 10 10 9 9 9 9 9 9 9 9 9 8 9 8 8 8 8 9 9 9 5 4 3 6 8 8 8 7 7
2 1 3 6 7 7 7 7 7 7 8 8 9 9 9 9 9 9 8 8 8 8 8 8 7 7 7 8 8 8 8 9 9 7 4 4 3 6 7 7 7 7 7
3 2 1 5 6 7 6 6 7 7 7 8 8 9 9 9 9 8 8 8 8 8 7 7 7 7 7 8 8 8 9 9 6 4 3 3 2 5 7 6 7 7 6
2 2 1 5 5 5 6 5 5 6 6 7 8 8 8 8 8 8 7 7 7 7 7 6 6 6 6 7 8 8 8 8 4 3 2 2 2 6 6 6 6 6 6
2 2 1 4 4 5 4 4 4 4 5 6 8 8 8 8 8 8 7 7 7 6 6 6 6 6 6 6 8 7 7 6 4 2 2 1 3 5 5 5 5 5 5
2 2 2 2 3 4 3 3 3 3 4 5 6 7 7 7 8 8 7 6 6 6 6 5 5 5 5 6 7 7 6 6 3 1 1 1 3 4 4 4 4 4 4
3 2 1 2 2 2 2 2 2 2 3 4 5 6 6 6 7 7 6 6 6 6 5 5 5 5 5 5 6 6 6 4 2 1 0 1 3 3 3 3 3 3 3
3 3 1 1 2 1 2 2 1 2 2 3 4 5 4 2 3 3 4 5 5 5 5 4 5 5 5 5 6 6 4 2 1 1 0 1 2 3 3 3 2 2 2
1 1 1 1 1 1 1 1 1 1 1 1 2 3 2 2 2 3 4 5 5 4 4 4 5 5 3 2 3 4 2 2 1 0 0 1 2 2 2 2 1 1 2
2 1 1 0 1 1 1 1 1 1 1 1 2 2 2 2 1 2 2 2 2 3 2 2 3 2 2 2 1 1 2 1 0 0 1 1 1 2 1 1 0 0 1
1 2 1 1 0 1 1 1 1 1 0 1 1 2 2 1 1 2 2 2 2 1 2 2 2 2 2 2 1 2 2 1 0 0 1 1 1 1 1 1 1 1 1
1 2 2 1 1 1 1 1 1 1 1 1 1 1 2 2 2 1 2 2 2 2 2 2 2 2 2 1 1 2 2 1 1 0 1 2 1 2 2 2 2 2 2
3 2 3 2 1 1 1 0 1 1 1 1 2 2 2 2 3 2 2 2 2 2 2 2 3 2 2 1 1 2 2 1 1 1 0 1 2 2 3 3 3 3 3
3 2 3 2 2 2 1 1 0 1 1 1 1 2 2 2 3 3 2 2 3 3 3 2 2 2 1 1 1 1 1 1 1 1 1 0 1 2 3 3 4 4 4
2 2 3 3 2 2 2 1 1 1 1 1 1 1 2 2 2 3 2 3 3 3 3 3 2 2 1 1 1 1 1 1 1 1 1 1 0 1 2 3 4 5 4
2 2 3 3 2 2 2 1 1 0 1 1 1 1 1 2 2 2 2 2 3 3 3 3 2 2 2 1 1 1 1 1 2 1 2 1 1 1 1 2 3 5 5
2 2 3 3 2 2 2 1 0 0 1 1 1 1 1 1 1 1 1 2 3 3 2 3 3 2 2 2 1 0 1 2 1 2 2 1 1 1 1 1 1 3 4
2 2 3 3 3 2 1 1 1 1 1 1 1 1 1 1 1 1 1 1 3 3 4 4 3 3 1 2 1 0 1 1 2 1 1 1 1 0 0 1 1 1 2
3 3 3 3 3 2 2 2 1 1 1 1 1 1 2 1 1 1 1 1 2 2 3 4 3 2 1 2 2 1 1 2 1 1 1 1 1 0 0 1 1 1 1
3 4 4 4 3 3 2 1 1 0 0 0 1 1 1 1 1 1 2 2 2 3 3 4 4 4 3 1 1 2 2 2 1 1 0 0 1 1 1 1 1 1 1
4 4 4 4 3 2 2 2 3 2 2 2 2 2 1 1 2 1 1 2 2 2 3 4 4 4 4 3 1 1 1 2 2 1 1 0 0 1 1 1 1 2 2
4 3 3 3 2 1 2 3 3 2 1 1 1 1 1 1 1 1 1 1 2 2 3 3 3 4 3 3 3 2 1 1 1 2 2 1 2 1 1 1 1 2 2
3 3 3 1 1 1 1 2 2 2 1 1 1 1 1 1 1 1 1 1 1 2 2 3 3 4 3 3 2 2 2 2 2 2 2 2 2 2 1 1 1 1 2
Wind_Direction
233 214 165 139 132 125 129 130 125 119 117 116 116 115 115 115 112 109 107 103 101 100 98 100 101 98 95 94 92 89 86 83 80 79 79 81 85 87 85 80 75 68 77
183 179 153 138 135 130 128 129 127 122 120 119 119 118 117 115 114 113 109 106 103 100 96 94 101 100 96 94 92 92 90 86 82 77 74 70 77 87 87 83 79 77 77
124 160 157 144 132 133 128 128 125 125 124 122 123 123 120 118 117 116 112 109 104 101 99 98 98 102 98 94 94 95 95 92 86 78 68 51 64 84 86 83 80 79 78
110 151 156 142 131 133 133 128 131 128 130 127 126 126 125 123 121 118 114 109 105 101 99 101 96 98 103 100 99 99 100 97 92 79 59 45 47 83 88 84 81 78 78
80 101 157 139 137 133 136 135 130 133 131 133 133 131 130 128 124 120 115 111 106 101 99 98 100 91 103 107 106 104 104 101 92 76 62 48 37 74 84 85 81 78 76
61 44 141 133 139 134 132 139 138 134 138 137 140 137 134 132 127 123 119 115 109 106 104 102 101 95 97 107 107 108 107 102 91 80 69 54 46 73 78 83 79 78 74
69 48 107 119 125 130 135 139 142 145 143 145 143 142 138 135 129 126 124 121 117 113 111 110 104 107 97 110 112 112 107 101 94 90 83 66 71 80 74 74 77 74 74
92 61 75 120 114 117 130 138 139 146 151 149 146 139 140 138 134 132 128 126 123 120 118 115 111 111 101 111 114 113 109 98 87 91 94 88 91 88 80 70 68 67 67
73 71 52 128 126 118 117 121 129 129 141 146 143 139 136 141 140 138 134 130 127 126 126 122 118 115 109 113 117 113 108 93 81 76 89 102 105 99 88 79 69 60 60
46 55 66 94 104 122 133 105 112 129 124 134 136 134 127 135 141 139 136 134 133 132 130 126 122 121 110 113 116 110 101 85 77 55 22 127 111 107 102 89 78 61 49
28 13 25 110 101 99 128 114 96 131 131 119 128 120 112 121 137 138 138 138 140 139 138 133 125 124 108 102 113 106 92 90 83 33 302 118 128 125 116 101 81 62 41
272 331 353 74 125 105 110 107 89 75 114 99 121 127 118 123 138 130 135 136 137 133 136 133 125 115 95 77 101 98 94 95 80 344 288 136 160 149 135 117 91 62 36
220 265 296 284 139 121 124 133 113 80 118 113 120 126 120 104 127 129 140 139 139 127 123 116 100 92 97 94 91 120 115 105 111 311 291 253 207 196 175 147 109 32 5
243 244 280 286 60 136 135 152 137 121 153 150 144 136 140 131 133 161 158 156 149 147 141 127 119 109 104 104 120 142 131 137 164 287 282 296 259 240 226 220 244 266 287
242 266 243 215 180 150 126 157 157 163 178 191 168 162 164 161 167 176 171 163 162 159 154 143 136 131 127 117 122 149 149 155 172 246 309 324 299 268 258 266 266 268 273
258 275 285 217 183 141 132 222 202 177 176 195 189 184 178 176 173 170 182 173 174 167 163 157 154 148 151 145 168 176 172 177 188 202 244 317 316 296 277 271 278 279 283
262 266 296 260 181 170 172 192 291 209 172 186 219 190 189 192 180 173 190 184 181 167 158 148 138 127 132 133 201 189 179 188 202 206 201 221 303 311 292 278 281 283 288
272 265 270 285 223 189 184 181 193 213 182 189 213 206 193 203 200 174 185 196 185 167 163 160 161 147 141 151 214 207 206 200 213 212 206 203 218 289 299 291 289 288 291
256 260 260 271 242 206 188 182 192 205 191 180 191 219 198 199 216 193 188 194 178 166 169 171 164 156 159 174 212 200 215 213 217 206 209 215 210 210 249 292 299 302 300
261 261 258 265 253 212 175 154 167 142 199 177 207 229 200 198 206 204 185 189 175 169 170 171 167 160 162 168 182 218 249 234 221 212 220 219 200 205 227 254 294 303 309
282 283 270 271 260 204 194 184 211 247 236 207 245 266 213 205 195 191 177 185 182 181 181 177 164 157 150 129 111 314 304 245 217 217 215 215 220 270 282 243 226 245 297
287 276 268 261 249 215 212 200 209 217 229 216 226 247 225 212 198 196 171 185 188 182 175 171 156 159 158 150 152 151 300 314 298 238 202 202 220 231 305 291 241 248 269
304 291 278 266 241 217 209 160 119 67 10 251 271 260 241 234 216 202 193 200 185 177 185 182 174 168 173 187 174 167 167 223 286 297 237 216 198 197 251 290 282 265 276
289 289 284 265 231 206 189 174 177 196 220 242 253 254 238 221 218 215 192 202 187 175 181 190 182 175 170 185 198 210 174 162 180 284 314 335 271 230 248 272 292 289 283
288 285 286 264 216 194 192 185 193 208 241 236 245 245 230 233 220 222 199 209 191 179 180 190 187 176 180 188 184 180 153 124 168 181 259 301 326 287 263 260 267 293 291
311 313 310 273 236 212 202 190 212 211 221 211 244 243 254 258 256 250 201 190 196 190 185 195 196 188 188 189 185 183 171 168 183 175 210 264 286 292 298 276 273 291 303